Regional Weather Roundup
Issued by NWS Little Rock, AR

Home | Current Version | Previous Version | Text Only | Print | Product List | Glossary Off
Versions: 1 2 3 4 5 6 7 8 9 10 11 12 13 14 15 16 17 18 19 20 21 22 23 24 25 26 27 28 29 30 31 32 33 34 35 36 37 38 39 40 41 42 43 44 45 46 47 48 49 50

000
ASUS44 KLZK 310905
RWRLZK

WEATHER ROUNDUP FOR ARKANSAS
NATIONAL WEATHER SERVICE LITTLE ROCK AR
400 AM CDT FRI JUL 31 2015

NOTE: "FAIR" INDICATES FEW OR NO CLOUDS BELOW 12,000 FEET WITH NO
SIGNIFICANT WEATHER AND/OR OBSTRUCTIONS TO VISIBILITY.

ARZ001-003-010-029-311000-
NORTHWEST ARKANSAS

CITY           SKY/WX    TMP DP  RH WIND       PRES   REMARKS
FAYETTEVILLE   MOCLDY    65  65 100 CALM      30.16R
FORT SMITH     CLEAR     74  68  81 E3        30.10F
HARRISON       CLEAR     63  63 100 CALM      30.16F
BENTONVILLE    MOCLDY    70  63  78 CALM      30.16S
ROGERS         MOCLDY    72  66  81 E3        30.17R
SILOAM SPGS    MOCLDY    72  61  68 E3        30.14S
$$

ARZ004-005-016-311000-
NORTH CENTRAL ARKANSAS

CITY           SKY/WX    TMP DP  RH WIND       PRES   REMARKS
BATESVILLE     CLEAR     68  64  88 W3        30.12S
FLIPPIN        CLEAR     66  63  88 CALM      30.13S
MTN HOME       CLEAR     68  64  87 NE3       30.14S
$$

ARZ040-041-311000-
WEST CENTRAL ARKANSAS

CITY           SKY/WX    TMP DP  RH WIND       PRES   REMARKS
MENA           CLEAR     70  68  94 CALM      30.14S
MOUNT IDA      FOG       68  67  96 CALM      30.11R VSB 1/2
$$

ARZ009-017-025-026-028-311000-
NORTHEAST ARKANSAS

CITY           SKY/WX    TMP DP  RH WIND       PRES   REMARKS
JONESBORO      CLEAR     72  65  78 N7        30.09S
NEWPORT        CLEAR     69  67  93 N5        30.11R
WALNUT RIDGE   CLEAR     68  63  83 NW5       30.10R
BLYTHEVILLE    CLEAR     67  66  97 N3        30.08S
$$

ARZ022-023-033-042-044-311000-
CENTRAL ARKANSAS

CITY           SKY/WX    TMP DP  RH WIND       PRES   REMARKS
LITTLE ROCK    PTCLDY    74  62  66 NE3       30.09S
N LITTLE ROCK    N/A     74  64  69 NE6       30.09S
JACKSONVILLE   CLOUDY    69  64  84 CALM      30.09S
SEARCY         MOCLDY    70  64  81 N5        30.11S
HOT SPRINGS    CLEAR     71  63  75 CALM      30.11R
RUSSELLVILLE   CLEAR     68  66  93 CALM      30.10F
CLINTON        FAIR      66  64  94 CALM      30.14R
$$

ARZ036-311000-
EAST ARKANSAS

CITY           SKY/WX    TMP DP  RH WIND       PRES   REMARKS
WEST MEMPHIS   CLEAR     67  67 100 NW3       30.07S
$$

ARZ050-053-066-070-073-311000-
SOUTHWEST ARKANSAS

CITY           SKY/WX    TMP DP  RH WIND       PRES   REMARKS
ARKADELPHIA    FAIR      72  65  78 NE3       30.08F
CAMDEN         CLEAR     66  63  88 CALM      30.07S
TEXARKANA      PTCLDY    72  67  84 CALM      30.09S
EL DORADO      PTCLDY    69  64  84 N6        30.08R
DE QUEEN       FOG       70  70 100 CALM      30.08S VSB 3/4
$$

ARZ056-057-069-311000-
SOUTHEAST ARKANSAS

CITY           SKY/WX    TMP DP  RH WIND       PRES   REMARKS
PINE BLUFF     CLEAR     72  65  78 N6        30.08S
STUTTGART      CLEAR     70  63  78 MISG      30.08R
MONTICELLO     CLEAR     71  67  87 CALM      30.05F

$$




USA.gov is the U.S. government's official web portal to all federal, state and local government web resources and services.